Regional Weather Roundup
Issued by NWS

Home | Current Version | Previous Version | Graphics & Text | Print | Product List | Glossary On
Versions: 1 2 3 4 5 6 7 8 9 10 11 12 13 14 15 16 17 18 19 20 21 22 23 24 25 26 27 28 29 30 31 32 33 34 35 36 37 38 39 40 41 42 43 44 45 46 47 48 49 50
183
ASUS45 KBOU 231507
RWRCO

WEATHER ROUNDUP FOR COLORADO
NATIONAL WEATHER SERVICE DENVER/BOULDER CO
900 AM MDT THU MAR 23 2017

NOTE: "FAIR" INDICATES FEW OR NO CLOUDS BELOW 12000 FEET WITH NO
SIGNIFICANT WEATHER AND/OR OBSTRUCTIONS TO VISIBILITY.

COZ001>005-013-030-031-231600-
...NORTHWEST COLORADO...

CITY           SKY/WX    TMP DP  RH WIND       PRES   REMARKS
CRAIG          PTSUNNY   44  34  67 E5        29.76R
HAYDEN         PTSUNNY   48  27  43 CALM      29.76R
MEEKER         CLOUDY    46  35  65 W12       29.78S
MOUNT WERNER   NOT AVBL
STEAMBOAT SPGS FAIR      49  27  42 SE10G17   29.77S
WALDEN         NOT AVBL
$$

COZ006>008-011-231600-
...WEST CENTRAL VALLEYS...

CITY           SKY/WX    TMP DP  RH WIND       PRES   REMARKS
GRAND JUNCTION PTSUNNY   49  42  77 NW6       29.76S
MONTROSE       FAIR      52  29  41 NE7       29.79F
EAGLE          SUNNY     39  32  75 CALM      29.83S
RIFLE          FAIR      57  28  33 SW17G23   29.76R
DELTA          FAIR      57  32  39 SW8       29.78F
NUCLA          FAIR      45  32  61 SW6       29.85F
$$

COZ017>023-064>068-231600-
...SOUTHWEST COLORADO...

CITY           SKY/WX    TMP DP  RH WIND       PRES   REMARKS
DURANGO        PTSUNNY   48  29  47 S14       29.86F
CORTEZ         PTSUNNY   46  37  71 W9        29.83F
PAGOSA SPRINGS CLOUDY    43  27  53 S5        29.92S
TELLURIDE      NOT AVBL
WOLF CREEK PAS SNOW      23  23 100 S16G22    30.01F VSB<1/4 WCI  10
$$

COZ009-010-012-014-032>034-037-058>063-231600-
...CENTRAL COLORADO...

CITY           SKY/WX    TMP DP  RH WIND       PRES   REMARKS
ASPEN          FAIR      39  30  70 S5        29.82F
BUENA VISTA    PTSUNNY   50  18  28 SE16      29.85S
COPPER MTN     FAIR      34  18  51 S13G25    29.95F WCI  25
BERTHOUD PASS  FAIR      28  18  64 S8        29.97F WCI  20
COTTONWOOD PAS PTSUNNY   45  10  24 SE9G30    29.91F
GUNNISON       FAIR      39  25  57 N8        29.85F
KREMMLING      FAIR      45  32  61 CALM      29.83F
LEADVILLE      FAIR      36  20  52 S8        29.88F
MONARCH PASS   FAIR      30  18  59 SW29G43   30.05F WCI  15
SALIDA         FAIR      52  20  28 S7        29.92F
SUNLIGHT       FAIR      30  21  69 S6        29.93S WCI  24
WILKERSON PASS FAIR      36  18  48 S8        29.98S
$$

COZ069>075-231600-
...SAN LUIS VALLEY/SANGRE DE CRISTO MOUNTAINS...

CITY           SKY/WX    TMP DP  RH WIND       PRES   REMARKS
ALAMOSA        FAIR      50  25  37 SW14      29.87S
LA VETA PASS   NOT AVBL
SAGUACHE       FAIR      50  23  34 S9        29.88F
$$

COZ035-036-038>040-231600-
...NORTHERN COLORADO FRONT RANGE...

CITY           SKY/WX    TMP DP  RH WIND       PRES   REMARKS
DENVER INTL AP FAIR      62  24  23 SW12      29.70F
DMNS CITY PARK   N/A     62  22  21 SE7G13    29.70S
AURORA         MOSUNNY   61  23  23 S9        29.72S
FRONT RANGE AP MOSUNNY   64  25  22 S12G18    29.72S
ERIE MUNI ARPT FAIR      53  35  49 E3        29.69F
BOULDER MUN AP FAIR      59  28  31 S3        29.69F
CENTENNIAL     FAIR      62  21  20 S14       29.73S
BROOMFIELD     MOSUNNY   63  23  22 SW13      29.72S
FORT COLLINS   FAIR      48  39  71 SE3       29.70F
LONGMONT       FAIR      51  35  54 E8        29.70F
$$

COZ041-046-047-076>085-087-088-231600-
...PIKES PEAK/PALMER DIVIDE AND SOUTHERN FOOTHILLS...

CITY           SKY/WX    TMP DP  RH WIND       PRES   REMARKS
COLO. SPRINGS  FAIR      55  31  39 S3        29.77S
A. F. ACADEMY  FAIR      52  30  42 SW5       29.77S
SCHRIEVER AFB  FAIR      55  30  38 S6        29.78S
ELLICOTT         N/A    N/A N/A N/A SW9       29.76S
FALCON         FAIR      55  28  35 S13       29.80F
FORT CARSON    NOT AVBL
LIMON          FAIR      47  46  97 SE5       29.73F
MONUMENT HILL  FAIR      55  23  28 SW8       29.81S
TRINIDAD       FAIR      63  31  30 SW12      29.77F
$$

COZ042>045-048>051-090-091-231600-
...NORTHEAST COLORADO...

CITY           SKY/WX    TMP DP  RH WIND       PRES   REMARKS
GREELEY ARPT   FAIR      45  36  70 W3        29.70F
AKRON          FAIR      54  44  69 SW6       29.69F
BURLINGTON     FAIR      59  50  72 S12       29.71F
WRAY           FAIR      59  48  67 SW9       29.68
STERLING       FAIR      39  34  81 S5        29.68F
HOLYOKE        FAIR      46  45  93 CALM      29.68F
FORT MORGAN    FAIR      46  38  73 CALM      29.70S
$$

COZ086-089-092>099-231600-
...SOUTHEAST COLORADO...

CITY           SKY/WX    TMP DP  RH WIND       PRES   REMARKS
PUEBLO         FAIR      49  35  58 CALM      29.72S
LA JUNTA       FAIR      62  40  44 SW7       29.70S
LAMAR          FAIR      63  47  55 S8        29.69R
SPRINGFIELD      N/A     57  48  72 S17G23    29.75F
$$




USA.gov is the U.S. government's official web portal to all federal, state and local government web resources and services.